This demonstration page uses our WeatherBlox Daily Observations layout. Learn more.

Left ArrowRight Arrow

31.84235, -102.49876

Hourly Observations for March 31, 2022

Temp ( °F °C ) Dew Point ( °F °C ) Humidity (%) Winds ( mph kmh ) Pressure ( in mb ) Visibility ( mi km ) Precip ( " mm )
12:53 am 00:53 Clear 48 8.9 43 6.1 83 83 E 7 11 29.73 1007 10 16 0.00 0.00
1:53 am 01:53 Partly Cloudy 47 8.3 42 5.6 83 83 ESE 12 19 29.73 1007 10 16 0.00 0.00
2:53 am 02:53 Clear 47 8.3 40 4.4 77 77 SSW 3 6 29.72 1006 10 16 0.00 0.00
3:53 am 03:53 Clear 46 7.8 40 4.4 79 79 N 18 30 29.76 1008 10 16 0.00 0.00
4:53 am 04:53 Clear 45 7.2 38 3.3 77 77 NNE 12 19 29.78 1009 10 16 0.00 0.00
5:53 am 05:53 Clear 41 5 37 2.8 86 86 N 15 24 29.84 1010 10 16 0.00 0.00
6:53 am 06:53 Clear 40 4.4 36 2.2 86 86 NNE 13 20 29.86 1011 10 16 0.00 0.00
7:53 am 07:53 Sunny 39 3.9 35 1.7 86 86 NNE 6 9 29.89 1012 10 16 0.00 0.00
8:53 am 08:53 Sunny 42 5.6 37 2.8 82 82 N 7 11 29.91 1013 10 16 0.00 0.00
9:53 am 09:53 Sunny 47 8.3 37 2.8 69 69 Calm 29.93 1014 10 16 0.00 0.00
10:53 am 10:53 Sunny 50 10 37 2.8 61 61 WNW 7 11 29.95 1014 10 16 0.00 0.00
11:53 am 11:53 Sunny 54 12.2 36 2.2 51 51 VRB 3 6 29.95 1014 10 16 0.00 0.00
12:53 pm 12:53 Sunny 58 14.4 29 -1.7 33 33 VRB 3 6 29.94 1014 10 16 0.00 0.00
1:53 pm 13:53 Sunny 63 17.2 28 -2.2 27 27 SSW 7 11 29.91 1013 10 16 0.00 0.00
2:53 pm 14:53 Sunny 65 18.3 25 -3.9 22 22 SSW 7 11 29.88 1012 10 16 0.00 0.00
3:53 pm 15:53 Sunny 66 18.9 23 -5 19 19 W 5 7 29.85 1011 10 16 0.00 0.00
4:53 pm 16:53 Sunny 67 19.4 22 -5.6 18 18 VRB 5 7 29.83 1010 10 16 0.00 0.00
5:53 pm 17:53 Sunny 68 20 23 -5 18 18 SE 5 7 29.82 1010 10 16 0.00 0.00
6:53 pm 18:53 Sunny 68 20 23 -5 18 18 S 9 15 29.82 1010 10 16 0.00 0.00
7:53 pm 19:53 Sunny 66 18.9 22 -5.6 19 19 Calm 29.83 1010 10 16 0.00 0.00
8:53 pm 20:53 Clear 63 17.2 22 -5.6 21 21 ESE 5 7 29.83 1010 10 16 0.00 0.00
9:53 pm 21:53 Clear 60 15.6 22 -5.6 23 23 ESE 9 15 29.83 1010 10 16 0.00 0.00
10:53 pm 22:53 Clear 59 15 19 -7.2 21 21 SE 10 17 29.84 1011 10 16 0.00 0.00
11:53 pm 23:53 Clear 56 13.3 19 -7.2 24 24 ESE 10 17 29.84 1011 10 16 0.00 0.00

Powered by AerisWeather